Regional Weather Roundup
Issued by NWS Albany, NY

Home | Current Version | Previous Version | Text Only | Print | Product List | Glossary On
Versions: 1 2 3 4 5 6 7 8 9 10 11 12 13 14 15 16 17 18 19 20 21 22 23 24 25 26 27 28 29 30 31 32 33 34 35 36 37 38 39 40 41 42 43 44 45 46 47 48
000
ASUS41 KALY 192010
RWRALY

NEW YORK STATE HOURLY WEATHER ROUNDUP
NATIONAL WEATHER SERVICE ALBANY NY
400 PM EDT THU APR 19 2018

NOTE: "FAIR" INDICATES FEW OR NO CLOUDS BELOW 12,000 FEET WITH NO
SIGNIFICANT WEATHER AND/OR NO OBSTRUCTIONS TO VISIBILITY.

NYZ032-033-038>043-046>054-057>066-NYZ062>081-082-084-192100-
EAST


CITY           SKY/WX    TMP DP  RH WIND       PRES   REMARKS
ALBANY         CLOUDY    40  31  70 W17G29    29.79R WCI  31
GLENS FALLS    LGT RAIN  40  31  70 NW9       29.76R WCI  34
POUGHKEEPSIE   CLOUDY    42  36  79 W5        29.76F
NEWBURGH       CLOUDY    43  36  75 NW12      29.77S
MONTGOMERY     LGT RAIN  43  33  68 NW14G23   29.77R
WHITE PLAINS   FAIR      42  36  79 NW12      29.76R
ISLIP          LGT RAIN  43  40  89 NW12      29.76S FOG
NEW YORK CITY  PTSUNNY   44  36  73 NW14      29.77S
CENTRAL PARK   PTSUNNY   44  36  73 NW9G17    29.80S
$$

NYZ005>009-017-018-044>046-055-056-192100-
CENTRAL


CITY           SKY/WX    TMP DP  RH WIND       PRES   REMARKS
FULTON         LGT SNOW  35  31  85 NW13      29.91R FOG     WCI  26
SYRACUSE       LGT SNOW  35  32  88 W16       29.90R FOG     WCI  25
ROME           CLOUDY    37  29  72 NW21G26   29.86R WCI  26
ELMIRA         FLURRIES  38  27  64 NW16G23   29.90R WCI  29
BINGHAMTON     MIX PCPN  32  25  75 N15G24    29.82R WCI  22
MONTICELLO     LGT RAIN  34  29  82 NW17G26   29.78R WCI  23
$$

NYZ026>034-041>043-087-192100-
NORTH


CITY           SKY/WX    TMP DP  RH WIND       PRES   REMARKS
WATERTOWN      LGT SNOW  35  31  85 NW7       29.89R FOG     WCI  29
FORT DRUM      NOT AVBL
OGDENSBURG     PTSUNNY   37  28  72 NW14      29.87R WCI  28
MASSENA        CLOUDY    39  29  67 W17       29.84R WCI  30
SARANAC LAKE   SNOW      29  28  96 VRB7      29.74R VSB 1/2 WCI  22
PLATTSBURGH    CLOUDY    42  25  50 W10       29.77R
$$

NYZ001>004-010>016-019>021-085-192100-
WEST


CITY           SKY/WX    TMP DP  RH WIND       PRES   REMARKS
NIAGARA FALLS  CLOUDY    39  26  59 NW20      30.02R WCI  29
BUFFALO        FLURRIES  38  27  64 W18G28    30.00R WCI  28
DUNKIRK        CLOUDY    36  28  73 W9G20     30.05R WCI  29
JAMESTOWN      LGT SNOW  32  26  78 NW23G31   29.99R WCI  19
WELLSVILLE     LGT SNOW  31  24  75 NW20G29   29.92R WCI  19
ROCHESTER      FLURRIES  37  26  64 NW18G25   29.96R WCI  27
PENN YAN       LGT SNOW  36  27  69 W15G23    29.92R WCI  27
$$

             KEY
       WCI = WIND CHILL INDEX
       VSB = VISIBILITY
       HX  = HEAT INDEX
$$



USA.gov is the U.S. government's official web portal to all federal, state and local government web resources and services.